GFSGL_con_lsi_336.txt.gz
Lid_Strength_Index
12 12 12 12 12 12 12 12 13 12 12 11 10 10 12 11 10 9 8 7 8 8 8 9 9 9 10 11 11 12 13 13 15 15 15 14 15 14 14 14 13 14 14
11 11 11 11 11 11 12 12 12 13 12 12 11 11 11 11 11 10 9 8 8 8 8 9 9 10 10 11 12 12 12 13 14 16 15 15 15 14 15 15 13 14 15
9 9 9 10 10 10 10 10 11 12 12 12 11 11 11 11 10 11 10 9 9 8 8 9 9 10 11 11 12 12 12 13 14 15 16 15 14 14 15 15 15 16 15
8 8 9 9 9 10 10 10 11 11 12 11 10 10 11 11 10 9 10 10 9 9 9 9 9 10 10 11 12 12 13 14 14 14 16 15 15 15 15 16 17 16 16
9 9 9 9 9 9 9 10 11 11 11 11 11 9 9 10 10 10 9 10 11 10 9 9 9 10 11 11 12 12 13 14 15 15 16 17 16 16 16 16 17 17 18
9 9 9 9 9 10 11 11 10 11 11 11 10 9 9 9 9 9 9 9 10 11 11 10 10 13 12 12 12 12 12 14 15 15 16 16 16 16 16 17 17 18 19
9 8 9 10 10 11 10 10 11 12 11 10 10 9 9 8 8 8 8 9 9 10 11 11 11 11 12 12 12 12 13 12 12 14 15 15 16 16 16 17 18 18 18
9 9 10 11 12 11 11 11 12 11 11 10 10 9 8 7 7 7 8 8 8 8 8 10 11 12 12 12 12 13 14 13 13 14 14 15 15 16 16 17 17 19 20
12 12 11 12 12 11 13 13 12 11 10 10 9 10 9 7 6 6 7 8 9 9 10 9 11 12 12 12 14 15 15 15 13 13 13 13 14 14 16 18 19 19 19
13 12 12 13 12 14 14 13 12 11 10 10 10 9 8 7 6 6 7 9 10 11 12 12 13 13 12 12 14 15 15 16 15 14 15 15 16 16 16 17 18 19 21
13 13 13 14 15 14 14 13 12 12 11 11 10 9 8 6 7 6 7 9 10 10 11 12 13 11 12 12 13 14 14 15 14 17 19 20 21 21 21 21 20 19 22
14 14 16 16 15 14 14 14 13 12 11 11 10 10 9 7 7 7 6 7 8 10 11 11 12 11 12 12 13 13 13 14 16 18 19 20 21 22 22 23 23 23 22
16 17 17 16 15 14 15 15 14 13 12 10 11 11 10 9 9 7 7 7 8 10 10 11 11 11 11 12 12 12 14 14 16 17 18 19 20 22 23 23 23 23 24
18 18 17 16 16 16 15 14 14 13 13 12 11 11 11 10 10 8 8 8 9 9 10 11 11 11 12 12 13 13 14 14 15 16 17 19 21 22 23 22 23 23 24
18 18 17 17 17 17 16 15 13 12 12 11 10 10 11 11 10 8 8 9 9 10 10 11 11 12 13 13 13 13 14 14 15 16 18 20 20 21 22 22 23 23 23
20 19 19 19 19 18 17 16 13 11 9 8 8 8 9 9 9 8 7 7 7 8 11 11 12 12 13 13 14 14 14 15 15 16 18 18 20 21 22 21 22 24 21
22 21 21 21 20 19 18 18 18 14 11 9 9 9 9 9 9 9 8 7 7 8 10 11 12 12 12 12 13 13 14 14 15 16 16 17 19 20 20 20 20 20 20
26 24 23 22 21 20 19 19 18 18 17 15 11 10 10 10 11 10 8 7 9 9 10 11 12 12 12 12 12 13 14 14 14 14 16 17 18 19 19 20 20 20 21
25 23 23 23 22 21 21 20 18 18 17 16 15 13 13 12 12 11 10 8 9 9 9 10 10 12 12 12 12 12 12 13 13 14 15 16 17 18 18 19 19 19 23
25 24 23 24 23 23 21 20 19 19 18 17 17 17 17 15 15 16 14 11 9 8 9 9 10 10 11 11 11 12 12 12 13 14 15 16 17 17 19 19 19 20 25
25 25 25 25 25 23 21 20 20 19 19 19 19 18 13 15 18 17 17 16 11 8 8 9 9 9 10 11 11 11 12 13 13 14 15 16 17 18 18 19 19 21 25
27 27 28 27 24 24 23 21 21 21 21 21 21 20 16 20 19 19 19 18 18 11 8 8 8 9 9 10 11 11 12 12 13 14 15 16 17 19 20 20 21 23 24
28 27 27 29 28 26 25 24 23 23 23 23 22 22 22 21 21 21 21 20 19 19 9 8 8 8 9 9 10 10 11 12 13 14 16 17 18 19 19 20 21 23 24
29 29 29 30 29 28 29 26 25 24 24 24 24 23 23 22 23 22 22 21 21 19 13 8 8 8 8 9 9 9 10 12 13 14 15 16 17 18 18 20 21 23 24
31 30 30 31 32 30 29 28 27 27 26 25 25 24 24 23 23 23 22 22 21 19 16 8 8 8 8 9 9 10 11 12 13 14 15 15 17 17 18 20 22 23 24
29 30 31 32 34 33 31 30 28 26 26 25 25 25 24 24 24 23 23 23 22 19 17 10 8 9 9 9 10 11 12 12 14 14 15 16 17 18 18 20 22 23 24

GFSGL_con_lsi_339.txt.gz
Lid_Strength_Index
13 12 12 12 12 13 13 13 13 13 13 13 13 13 13 12 10 11 12 12 10 10 9 8 8 8 9 9 9 9 10 10 12 15 14 13 14 14 14 14 14 14 14
13 12 12 12 12 13 13 13 13 13 13 14 14 14 13 12 11 11 11 12 12 11 10 9 9 8 9 9 9 10 10 11 11 15 15 15 14 13 14 14 14 14 15
12 12 11 11 12 12 12 12 12 12 13 13 13 13 13 13 12 11 11 11 11 11 10 10 9 8 9 9 10 10 10 11 12 14 15 14 14 14 15 15 15 16 15
11 11 10 10 10 10 10 10 10 11 11 11 12 12 12 12 11 10 10 11 11 10 9 10 9 9 9 8 10 10 11 11 12 13 15 14 14 14 15 16 17 17 17
10 10 10 9 9 9 10 10 10 10 10 11 11 11 11 10 10 10 9 10 11 11 10 9 8 9 11 9 10 10 11 12 13 14 15 15 15 16 16 17 17 18 19
10 9 9 9 9 9 10 10 10 10 11 11 11 10 10 10 9 8 8 9 10 10 10 9 8 9 10 11 10 10 10 12 12 13 14 15 15 15 16 16 18 19 20
8 8 9 9 9 10 10 10 11 11 12 12 11 10 10 10 8 8 8 8 9 9 9 9 9 8 10 10 10 11 11 10 11 12 14 14 15 15 15 17 18 18 19
8 9 9 10 11 11 11 11 12 12 13 12 12 11 10 10 8 7 7 7 8 9 8 8 9 8 8 9 10 12 12 12 12 12 12 14 13 14 15 16 17 19 21
11 11 10 11 12 12 12 13 13 13 13 13 11 11 11 10 8 7 7 7 8 9 7 7 7 7 8 8 10 13 14 14 12 12 12 13 13 13 15 17 19 19 21
11 11 11 12 12 13 13 13 13 13 12 12 12 11 10 9 8 7 7 7 8 8 8 8 8 8 7 7 10 12 14 15 15 15 14 13 14 14 15 16 18 18 21
12 12 13 13 14 14 14 13 13 14 13 14 13 12 10 9 9 8 7 8 7 8 8 8 8 8 7 7 9 12 12 13 13 15 18 18 19 19 19 19 18 18 21
13 14 15 15 15 15 15 14 15 15 15 15 13 13 11 10 9 8 7 6 6 8 8 8 8 8 8 9 11 11 11 13 15 17 18 19 20 21 22 22 22 22 23
15 16 16 16 15 14 15 16 16 15 16 14 14 14 13 10 9 8 7 6 7 7 8 8 7 8 8 9 10 10 12 14 15 17 18 19 20 22 23 23 23 24 25
17 17 16 16 16 16 15 15 16 17 16 15 15 14 12 11 10 9 9 9 8 7 7 8 8 9 9 9 11 11 12 13 15 16 17 20 22 22 22 22 23 23 24
17 17 17 16 17 17 17 17 16 15 14 14 13 13 13 12 10 8 8 9 9 8 8 9 9 10 11 11 11 12 12 13 15 16 19 20 21 21 22 21 22 23 24
19 18 18 19 18 18 18 18 15 13 12 12 11 11 11 9 8 7 8 8 8 7 8 10 10 10 11 11 11 13 13 13 15 16 18 20 21 21 22 21 21 22 23
22 21 20 20 20 20 20 20 20 17 14 13 12 12 11 10 9 9 8 8 8 7 9 10 10 10 10 11 11 12 13 13 14 16 17 18 19 20 21 21 21 20 22
24 23 22 21 21 21 21 21 20 21 21 19 15 14 12 12 11 10 9 10 11 8 9 10 10 10 10 10 11 11 13 13 14 15 16 17 18 19 19 20 20 20 22
24 23 22 22 22 22 22 22 21 21 21 21 19 17 16 14 12 12 12 15 15 14 9 9 9 9 10 10 10 11 12 12 13 14 15 16 16 17 18 18 19 20 23
26 25 23 24 24 24 24 23 22 22 22 22 21 21 20 16 18 20 19 18 18 17 16 9 9 9 9 9 10 10 11 12 12 13 14 14 15 15 17 18 18 21 22
27 26 25 26 26 25 24 24 23 23 23 23 23 22 15 18 22 21 21 20 20 19 18 19 9 9 9 9 10 10 11 11 11 11 12 14 15 16 16 17 19 20 23
31 29 28 28 26 27 27 25 24 24 24 25 24 23 18 23 23 23 22 22 21 21 19 18 17 8 9 9 9 10 10 11 11 11 12 14 14 15 17 18 20 22 24
32 31 28 29 30 29 29 30 27 26 26 26 26 25 24 24 23 24 23 22 22 22 20 19 18 10 8 8 9 9 10 11 10 11 13 14 15 17 17 20 21 23 23
34 33 30 29 31 31 32 31 30 28 27 27 27 26 25 25 24 24 23 22 22 21 21 20 17 14 8 8 8 9 9 10 10 11 13 15 16 17 18 19 21 22 23
34 32 30 30 31 32 33 33 31 30 28 27 26 26 25 25 24 24 23 22 21 21 21 19 17 13 8 8 8 9 9 10 11 12 14 15 16 17 18 19 21 22 23
32 30 30 31 31 32 33 35 34 31 30 27 26 25 25 25 24 23 23 22 20 20 19 19 17 14 7 8 8 9 10 11 13 13 14 15 16 17 18 20 21 22 23

GFSGL_con_lsi_342.txt.gz
Lid_Strength_Index
13 13 13 12 12 12 13 13 13 13 13 13 14 14 14 14 13 13 12 12 12 11 10 10 10 9 9 8 8 8 9 9 9 11 13 13 13 12 13 12 13 13 13
13 13 12 12 13 13 13 13 13 14 13 14 14 14 14 14 14 14 13 12 12 12 12 11 11 10 8 8 8 9 9 9 10 10 15 14 14 12 13 13 13 13 14
13 13 12 12 12 12 12 12 12 13 13 13 13 14 14 14 14 13 13 12 12 12 11 11 11 11 10 8 8 8 9 9 9 10 15 13 14 13 14 14 14 15 15
12 12 12 11 11 11 11 11 11 12 13 12 12 13 13 12 12 12 12 12 12 11 11 11 11 11 10 10 9 7 8 9 10 10 13 14 14 14 14 16 17 17 17
12 11 10 10 10 10 10 10 11 11 11 11 11 11 11 10 10 10 9 10 10 10 10 10 10 10 11 10 10 9 7 9 10 11 13 14 15 15 16 16 16 17 18
10 10 9 9 9 9 10 10 11 10 11 11 11 11 11 10 8 7 8 9 8 9 9 9 9 10 10 9 9 9 8 8 10 11 12 14 14 14 14 15 16 18 19
9 8 8 9 9 10 10 10 11 11 11 11 12 11 11 10 8 8 7 8 8 8 8 9 9 8 9 9 9 8 8 8 7 9 12 13 13 14 14 15 16 16 18
8 8 9 9 10 10 10 11 11 11 12 12 12 12 11 10 9 8 7 8 8 8 8 8 8 8 8 8 8 8 8 8 8 8 8 11 11 13 14 14 15 19 20
11 10 9 10 10 11 11 12 12 12 12 13 12 12 12 12 9 8 8 9 9 9 8 7 8 8 8 8 8 8 8 9 8 7 8 9 11 12 13 15 18 18 21
11 10 11 11 11 12 13 13 12 12 13 12 12 12 12 12 10 8 8 9 10 9 8 7 7 7 7 7 8 8 9 9 9 10 10 10 11 12 13 13 16 16 20
12 12 12 13 13 13 13 13 13 14 14 14 14 13 13 11 11 9 8 9 9 9 9 9 7 6 6 6 6 7 8 9 9 11 12 12 13 15 15 15 15 16 19
13 14 15 15 14 14 14 14 14 15 15 15 15 14 13 12 10 9 8 8 8 10 10 8 7 5 6 6 7 7 7 8 10 13 14 15 16 17 18 19 20 21 21
16 17 16 15 15 14 15 15 16 15 16 16 15 15 15 13 12 10 9 8 8 9 9 8 6 6 6 6 6 7 9 10 12 14 15 17 18 20 21 22 23 23 24
18 18 16 16 15 15 15 15 16 16 16 15 16 15 14 14 13 11 10 10 9 9 9 8 7 6 6 7 8 8 9 10 12 13 16 19 20 20 21 21 22 22 23
18 17 17 16 17 17 17 17 16 15 14 15 14 14 15 15 13 10 10 10 10 9 9 9 9 8 9 9 9 9 10 11 12 15 17 19 20 20 21 20 21 22 23
19 18 18 19 18 18 18 18 15 14 13 12 12 12 13 11 11 10 10 9 7 8 9 10 9 8 9 9 9 10 11 11 13 15 17 18 20 20 21 21 21 22 23
22 21 20 20 20 20 20 20 21 18 15 14 13 13 13 12 12 12 10 9 9 10 11 11 8 9 9 9 10 10 11 11 13 14 16 18 19 19 20 21 21 22 23
27 24 23 22 21 21 21 21 21 22 22 21 17 16 14 14 14 12 12 13 18 16 16 14 14 9 9 9 10 10 11 12 13 14 16 17 17 18 20 20 20 21 22
25 24 24 23 23 23 23 23 23 22 23 22 21 19 19 17 14 14 15 21 20 20 18 18 16 16 9 9 9 10 11 12 12 14 15 16 16 17 18 17 17 19 22
28 26 25 25 25 25 25 25 24 24 24 24 24 24 23 19 21 22 22 22 22 21 20 20 19 17 16 8 9 9 10 11 13 13 14 14 15 15 16 16 17 20 21
29 28 27 28 28 26 25 26 26 26 25 25 25 24 17 20 24 24 24 23 23 22 22 22 21 19 18 12 9 9 10 11 12 12 13 13 14 14 14 15 17 18 21
33 32 32 31 28 28 28 28 28 28 27 27 26 25 19 26 26 25 25 23 23 22 22 22 22 20 19 18 9 9 10 10 11 12 12 13 13 14 14 16 18 19 20
35 35 34 32 32 31 31 30 32 31 29 28 27 27 27 27 26 26 25 23 23 23 22 22 22 20 19 17 11 8 9 10 10 11 12 13 13 14 15 17 18 19 20
37 37 36 35 34 33 32 32 32 31 31 30 28 27 27 26 26 25 24 23 22 22 21 21 21 20 19 17 16 8 8 9 9 11 12 12 13 14 16 17 18 19 21
38 36 36 36 36 34 32 31 34 34 32 31 29 27 26 26 25 24 23 22 22 21 21 20 19 18 18 17 18 8 8 9 10 11 11 12 13 15 16 17 19 20 21
36 35 35 35 34 34 34 32 32 33 33 31 29 27 25 24 24 23 22 21 20 20 20 18 18 18 17 16 14 8 9 10 11 11 12 13 14 16 17 18 19 20 21

GFSGL_con_lsi_345.txt.gz
Lid_Strength_Index
12 12 12 12 11 12 12 12 12 12 12 12 13 13 13 13 13 13 13 13 12 12 11 11 12 11 10 9 9 9 8 7 9 9 11 11 12 12 11 11 12 12 11
12 12 12 11 11 11 12 12 11 12 12 12 13 13 13 13 13 14 14 13 13 12 11 11 12 11 11 10 10 10 9 8 7 8 8 13 11 11 11 12 12 12 12
12 12 11 11 11 11 11 11 11 12 12 12 12 13 13 13 13 13 13 13 12 12 12 12 12 11 11 11 11 10 9 9 8 7 7 10 11 11 13 12 13 13 13
12 11 11 10 10 10 10 10 10 10 11 11 11 11 12 12 12 12 12 11 11 11 10 10 11 11 11 11 11 10 10 10 10 9 7 11 10 11 12 14 15 14 15
12 11 10 9 9 9 9 9 10 10 10 10 11 11 11 11 11 10 9 9 10 9 9 8 8 9 9 10 10 10 10 11 11 10 9 11 11 12 12 13 14 15 16
11 10 9 9 9 9 9 10 10 10 10 10 11 11 11 10 9 8 8 8 8 8 8 7 7 7 7 7 8 8 8 10 11 11 10 9 10 11 11 12 13 16 17
10 9 9 9 10 10 10 10 10 10 10 10 10 11 11 10 8 7 7 8 8 8 8 8 8 7 7 7 7 7 8 8 8 9 10 9 9 10 11 12 13 14 15
9 9 9 10 10 10 10 10 10 10 11 11 11 11 11 10 8 8 8 8 8 8 8 8 8 8 7 7 7 8 8 8 8 7 7 8 7 8 10 11 12 14 18
12 11 10 10 11 11 11 11 11 11 11 11 11 11 11 11 9 8 8 8 8 8 8 8 8 8 7 7 8 8 9 8 7 6 6 6 6 7 9 11 13 16 20
12 11 11 11 11 12 12 13 12 12 12 11 11 11 12 12 10 8 8 8 9 9 8 8 8 8 8 7 8 8 9 8 8 7 7 6 6 7 8 10 12 13 16
13 13 13 12 13 13 13 13 13 13 13 13 13 13 13 12 10 9 8 9 9 9 10 10 9 8 8 7 7 8 7 7 7 7 7 7 7 8 9 9 10 11 15
14 14 15 14 14 13 14 14 14 14 15 15 15 14 12 11 11 10 9 9 9 10 10 10 10 8 7 7 7 6 5 5 7 7 8 9 9 10 11 13 14 15 15
16 17 16 15 14 14 14 15 15 15 16 16 15 15 14 12 11 10 10 9 9 10 10 10 8 8 7 7 6 5 7 7 8 9 9 11 12 15 17 18 19 20 20
18 17 16 15 15 15 15 15 16 17 16 16 16 15 14 13 13 12 11 11 10 11 10 10 9 8 7 6 6 6 7 7 8 9 11 15 15 15 17 17 18 18 21
17 17 16 16 17 17 16 16 16 15 15 15 14 14 14 15 13 11 11 12 11 10 10 11 11 9 8 6 6 7 7 8 9 13 14 15 15 16 17 16 18 18 21
18 17 18 18 18 18 18 18 15 14 13 12 12 12 13 12 11 11 11 10 10 11 14 15 13 12 11 10 8 8 8 9 11 12 14 15 16 16 18 18 17 18 21
21 20 20 20 20 20 20 20 22 19 15 15 14 14 13 13 13 12 11 11 13 14 18 18 17 15 14 14 10 8 9 9 11 12 14 15 16 17 18 18 18 19 21
27 24 22 21 21 21 22 22 22 23 23 22 18 17 15 15 14 13 13 15 21 20 20 20 19 17 17 16 16 9 9 10 11 13 14 14 15 17 18 18 19 20 20
24 23 23 23 23 23 23 24 24 24 24 24 23 20 20 18 16 15 17 23 23 23 22 21 20 19 19 18 16 14 9 10 11 12 14 14 15 16 17 17 18 19 20
27 26 24 25 25 26 26 26 25 25 25 25 25 24 23 21 22 23 24 24 24 23 22 22 21 21 20 19 18 17 9 10 11 11 13 14 15 15 16 16 18 19 18
29 28 27 29 30 29 27 27 27 27 28 27 26 25 18 21 25 25 25 24 24 23 23 22 22 22 21 20 19 18 14 9 10 11 12 14 14 15 14 15 16 17 19
31 32 33 34 30 30 30 29 29 30 30 29 28 27 20 26 26 26 25 24 23 23 22 22 22 22 22 21 20 18 18 10 10 11 12 13 13 13 14 15 16 17 20
34 35 34 35 35 32 32 32 32 32 32 31 30 28 27 26 26 26 25 24 23 23 22 21 21 21 20 19 18 18 17 15 9 10 11 12 13 13 14 15 16 17 19
36 37 37 36 37 35 34 33 33 33 33 32 31 29 28 27 26 25 24 23 22 22 21 20 19 20 20 19 18 17 16 16 8 9 10 12 13 13 15 16 16 17 18
38 38 38 37 37 36 36 33 32 33 33 33 31 29 28 26 25 24 23 22 21 20 19 19 18 17 17 17 17 17 16 15 10 9 10 11 13 14 15 16 16 17 18
38 38 38 38 36 35 35 34 32 31 32 31 31 30 28 26 25 23 23 22 20 20 19 17 15 15 15 15 15 15 14 12 9 10 10 12 13 14 15 16 17 17 18